Regional Weather Roundup
Issued by NWS

Home | Current Version | Previous Version | Graphics & Text | Print | Product List | Glossary On
Versions: 1 2 3 4 5 6 7 8 9 10 11 12 13 14 15 16 17 18 19 20 21 22 23 24 25 26 27 28 29 30 31 32 33 34 35 36 37 38 39 40 41 42 43 44 45 46 47 48 49
106
ASUS45 KSLC 240010
RWRUT

UTAH REGIONAL WEATHER ROUNDUP
NATIONAL WEATHER SERVICE SALT LAKE CITY UT
600 PM MDT MON MAY 23 2016

UTZ001>011-023>025-240100-

NORTHERN UTAH

CITY           SKY/WX    TMP DP  RH WIND       PRES   REMARKS
BRIGHAM CITY     N/A     66  27  23 SW3       29.85F
HILL AFB       SUNNY     63  31  29 S8        29.85F
LOGAN          MOSUNNY   64  30  27 S3        29.85F
OGDEN          MOSUNNY   66  32  28 NW7       29.84F
PROVO AIRPORT  MOSUNNY   66  36  32 NW12      29.83F
SALT LAKE CITY PTSUNNY   69  28  21 NW5       29.82F
VERNAL         SUNNY     66  25  21 W9        29.85F
WENDOVER       MOSUNNY   64  30  27 E10       29.83F
HEBER CITY     MOSUNNY   66  23  19 SW14      29.85S
WEST JORDAN    SUNNY     64  32  29 CALM      29.85F

$$

UTZ012>022-026-027-240100-

SOUTHERN/CENTRAL UTAH

CITY           SKY/WX    TMP DP  RH WIND       PRES   REMARKS
BLANDING       SUNNY     71  12  10 S12G17    29.95F
BRYCE CANYON   SUNNY     61  16  17 SW14      29.94F
CEDAR CITY     SUNNY     69  19  15 SW20G25   29.83F
DELTA          MOSUNNY   68  21  17 CALM      29.81F
HANKSVILLE     SUNNY     77  18  10 SW6       29.79S
MILFORD        MOSUNNY   71  18  13 SW15G25   29.79F
MOAB/CYNLANDS  SUNNY     75  11   8 SW12G18   29.77F
PRICE          PTSUNNY   65  18  16 VRB5      29.85F
ST GEORGE      PTCLDY    81  23  12 SW13G23   29.73F

$$

REGIONAL REPORTS     COLORADO/ARIZONA

CITY           SKY/WX    TMP DP  RH WIND       PRES   REMARKS
CRAIG, CO      CLOUDY    65  26  23 CALM      29.90S
GRAND JUNCTION MOSUNNY   72  20  14 NW7       29.81S
RIFLE          MOSUNNY   70  23  17 W14       29.83F
MONTROSE       SUNNY     71  13  10 SW14G23   29.86F
CORTEZ         SUNNY     72  16  12 SW10      29.90F
PAGE, AZ       SUNNY     78  14   9 NE6       29.77F
GRAND CANYON   SUNNY     68  12  11 SW17G25   29.93F
KINGMAN        SUNNY     78  14   9 SW24      29.81F
FLAGSTAFF      SUNNY     62  13  14 SW18G31   29.98F

$$

REGIONAL REPORTS    NEVADA/IDAHO/WYOMING

CITY           SKY/WX    TMP DP  RH WIND       PRES   REMARKS
LAS VEGAS, NV  MOSUNNY   82  20  10 SW13G22   29.66F
ELY            CLOUDY    60  21  22 SE10      29.83F
ELKO           CLOUDY    58  34  40 NE14      29.85S
POCATELLO, ID  MOSUNNY   65  30  27 W14       29.86F
BURLEY         MOSUNNY   63  34  33 NW6       29.83F
EVANSTON, WY   CLOUDY    51  29  42 S7        29.94S
ROCK SPRINGS   CLOUDY    53  26  35 W9        29.94F
KEMMERER         N/A     54  23  30 W14G22    29.95S

$$




USA.gov is the U.S. government's official web portal to all federal, state and local government web resources and services.